Tracking 19245 objects as of 14-Aug-2018
HD Live streaming from Space Station
objects crossing your sky now

GLOBALSTAR M092

Track GLOBALSTAR M092 now!
10-day predictions
GLOBALSTAR M092 is classified as:


NORAD ID: 38043
Int'l Code: 2011-080D
Perigee: 1,420.4 km
Apogee: 1,421.1 km
Inclination: 52.0 °
Period: 114.1 minutes
Semi major axis: 7791 km
RCS: 5.0785 m2 (large)
Launch date: December 28, 2011
Source: Globalstar (GLOB)
Launch site: TYURATAM MISSILE AND SPACE COMPLEX (TTMTR)
aabbcc
Your satellite tracking list
Your tracking list is empty




NASA's NSSDC Master Catalog

Two Line Element Set (TLE):
1 38043U 11080D   18224.86747083 -.00000110 +00000-0 -33329-4 0  9996
2 38043 052.0085 146.5317 0000485 013.8172 013.6721 12.62266688306361
Source of the keplerian elements: AFSPC